HYS102 KJFK-LROP

Flight info

Callsign HYS102
Flight time N/A
Altitude 39000
Route SKORR5 YNKEE DCT BETTE DCT TOPPS DCT ALLRY/M082F410 DCT 51N050W 54N040W 55N030W 55N020W DCT RESNO/N0474F410 DCT NETKI DCT REVNU DCT BOFUM Q37 MALUD UL975 WAL M16 DOLAS L603 LAMSO DCT RKN DCT NOMKA DCT SUVUT L620 PIKIB DCT OMELO DCT ODNEM DCT ERGOM DCT TEGRI DCT LAMIT DCT TOSVI
Aircraft A332/H-SDE3GHIJ2J3J5M1RVWXY/LB2D1

Departure

Time 2026-05-01 09:00
Airport John F. Kennedy International Airport (KJFK)

Arrival

Time N/A
Airport Bucharest Henri Coandă International Airport (LROP)
Time Latitude Longitude Altitude Speed Heading
2026-05-01 08:06 40.64427 -73.77988 27 ft 0 kts 229°
2026-05-01 08:34 40.64435 -73.77976 26 ft 2 kts 229°
2026-05-01 08:34 40.64450 -73.77949 26 ft 4 kts 246°
2026-05-01 08:35 40.64454 -73.77934 26 ft 0 kts 259°
2026-05-01 08:35 40.64455 -73.77927 26 ft 3 kts 245°
2026-05-01 08:35 40.64450 -73.77912 32 ft 0 kts 102°
2026-05-01 08:35 40.64456 -73.77910 26 ft 0 kts 102°
2026-05-01 08:36 40.64456 -73.77909 26 ft 0 kts 102°
2026-05-01 08:36 40.64455 -73.77902 27 ft 1 kts 104°
2026-05-01 08:37 40.64454 -73.77902 27 ft 0 kts 104°
2026-05-01 08:38 40.64454 -73.77898 27 ft 0 kts 104°
2026-05-01 08:39 40.64453 -73.77896 27 ft 1 kts 104°
2026-05-01 08:40 40.64448 -73.77869 27 ft 3 kts 103°
2026-05-01 08:40 40.64445 -73.77849 27 ft 0 kts 100°
2026-05-01 08:40 40.64442 -73.77826 27 ft 3 kts 99°
2026-05-01 08:41 40.64441 -73.77800 27 ft 0 kts 89°
2026-05-01 08:42 40.64437 -73.77796 27 ft 1 kts 122°
2026-05-01 08:42 40.64427 -73.77781 27 ft 4 kts 128°
2026-05-01 08:43 40.64406 -73.77743 26 ft 5 kts 128°
2026-05-01 08:43 40.64381 -73.77708 26 ft 5 kts 139°
2026-05-01 08:43 40.64356 -73.77684 26 ft 4 kts 146°
2026-05-01 08:43 40.64330 -73.77664 26 ft 5 kts 149°
2026-05-01 08:44 40.64302 -73.77643 26 ft 5 kts 151°
2026-05-01 08:44 40.64272 -73.77621 26 ft 5 kts 151°
2026-05-01 08:44 40.64237 -73.77595 26 ft 6 kts 150°
2026-05-01 08:44 40.64199 -73.77566 26 ft 7 kts 150°
2026-05-01 08:45 40.64160 -73.77537 26 ft 7 kts 149°
2026-05-01 08:45 40.64124 -73.77504 26 ft 6 kts 141°
2026-05-01 08:45 40.64093 -73.77467 26 ft 6 kts 135°
2026-05-01 08:45 40.64067 -73.77425 31 ft 6 kts 128°
2026-05-01 08:46 40.64038 -73.77375 31 ft 7 kts 127°
2026-05-01 08:46 40.64011 -73.77338 30 ft 3 kts 157°
2026-05-01 08:46 40.63987 -73.77336 29 ft 4 kts 181°
2026-05-01 08:46 40.63963 -73.77350 28 ft 4 kts 212°
2026-05-01 08:47 40.63941 -73.77369 29 ft 4 kts 211°
2026-05-01 08:47 40.63916 -73.77389 29 ft 4 kts 211°
2026-05-01 08:47 40.63885 -73.77413 30 ft 6 kts 210°
2026-05-01 08:47 40.63834 -73.77451 24 ft 10 kts 211°
2026-05-01 08:48 40.63768 -73.77504 22 ft 12 kts 210°
2026-05-01 08:48 40.63700 -73.77557 26 ft 11 kts 211°
2026-05-01 08:48 40.63640 -73.77604 25 ft 10 kts 211°
2026-05-01 08:48 40.63579 -73.77651 29 ft 10 kts 211°
2026-05-01 08:49 40.63520 -73.77698 26 ft 9 kts 210°
2026-05-01 08:49 40.63474 -73.77734 28 ft 6 kts 210°
2026-05-01 08:49 40.63445 -73.77756 29 ft 4 kts 210°
2026-05-01 08:49 40.63429 -73.77769 30 ft 2 kts 210°
2026-05-01 08:50 40.63418 -73.77777 30 ft 2 kts 211°
2026-05-01 08:50 40.63403 -73.77790 30 ft 4 kts 216°
2026-05-01 08:50 40.63368 -73.77828 29 ft 7 kts 216°
2026-05-01 08:50 40.63338 -73.77829 30 ft 2 kts 167°
2026-05-01 08:51 40.63337 -73.77829 30 ft 0 kts 167°
2026-05-01 08:51 40.63336 -73.77829 30 ft 0 kts 164°
2026-05-01 08:51 40.63335 -73.77827 30 ft 1 kts 154°
2026-05-01 08:52 40.63317 -73.77810 31 ft 5 kts 142°
2026-05-01 08:52 40.63296 -73.77776 31 ft 4 kts 123°
2026-05-01 08:52 40.63280 -73.77743 31 ft 5 kts 122°
2026-05-01 08:52 40.63261 -73.77703 31 ft 5 kts 122°
2026-05-01 08:53 40.63241 -73.77660 31 ft 5 kts 122°
2026-05-01 08:53 40.63224 -73.77622 32 ft 4 kts 121°
2026-05-01 08:53 40.63211 -73.77594 33 ft 3 kts 121°
2026-05-01 08:53 40.63203 -73.77575 33 ft 2 kts 121°
2026-05-01 08:54 40.63197 -73.77562 33 ft 2 kts 121°
2026-05-01 08:54 40.63189 -73.77546 33 ft 4 kts 121°
2026-05-01 08:54 40.63164 -73.77488 33 ft 12 kts 120°
2026-05-01 08:54 40.63110 -73.77369 31 ft 17 kts 121°
2026-05-01 08:55 40.63048 -73.77233 31 ft 18 kts 121°
2026-05-01 08:55 40.62986 -73.77094 27 ft 8 kts 121°
2026-05-01 08:55 40.62971 -73.77086 27 ft 1 kts 170°
2026-05-01 08:55 40.62966 -73.77088 27 ft 1 kts 185°
2026-05-01 08:56 40.62958 -73.77090 27 ft 2 kts 190°
2026-05-01 08:56 40.62940 -73.77094 27 ft 3 kts 190°
2026-05-01 08:56 40.62926 -73.77103 27 ft 2 kts 203°
2026-05-01 08:56 40.62913 -73.77113 28 ft 3 kts 210°
2026-05-01 08:57 40.62892 -73.77130 28 ft 4 kts 212°
2026-05-01 08:57 40.62865 -73.77152 28 ft 5 kts 212°
2026-05-01 08:57 40.62834 -73.77175 27 ft 6 kts 210°
2026-05-01 08:57 40.62826 -73.77191 27 ft 0 kts 255°
2026-05-01 08:58 40.62826 -73.77192 27 ft 0 kts 258°
2026-05-01 08:58 40.62825 -73.77210 27 ft 3 kts 272°
2026-05-01 08:58 40.62832 -73.77238 27 ft 4 kts 289°
2026-05-01 08:59 40.62857 -73.77302 29 ft 22 kts 298°
2026-05-01 08:59 40.63036 -73.77699 34 ft 78 kts 300°
2026-05-01 08:59 40.63411 -73.78523 26 ft 132 kts 301°
2026-05-01 08:59 40.63963 -73.79740 53 ft 175 kts 302°
2026-05-01 09:00 40.64614 -73.81150 662 ft 180 kts 303°
2026-05-01 09:00 40.65084 -73.82611 1588 ft 180 kts 280°
2026-05-01 09:00 40.64655 -73.84301 1804 ft 219 kts 235°
2026-05-01 09:00 40.63406 -73.85664 2152 ft 243 kts 219°
2026-05-01 09:01 40.61985 -73.86916 2835 ft 246 kts 218°
2026-05-01 09:01 40.60526 -73.88095 3622 ft 247 kts 206°
2026-05-01 09:01 40.58852 -73.88436 4370 ft 255 kts 174°
2026-05-01 09:01 40.57123 -73.87708 4951 ft 266 kts 159°
2026-05-01 09:02 40.55424 -73.86681 5582 ft 271 kts 158°
2026-05-01 09:02 40.53652 -73.85809 6279 ft 272 kts 171°
2026-05-01 09:02 40.51798 -73.85256 6949 ft 276 kts 165°
2026-05-01 09:02 40.50100 -73.84008 7596 ft 288 kts 139°
2026-05-01 09:03 40.49001 -73.81777 8216 ft 299 kts 108°
2026-05-01 09:03 40.48742 -73.79078 8841 ft 304 kts 90°
2026-05-01 09:03 40.48837 -73.76278 9497 ft 309 kts 83°
2026-05-01 09:03 40.49120 -73.73458 10115 ft 314 kts 79°
2026-05-01 09:04 40.49483 -73.70541 10433 ft 331 kts 79°
2026-05-01 09:04 40.49868 -73.67477 10667 ft 348 kts 79°
2026-05-01 09:04 40.50243 -73.64254 10903 ft 365 kts 81°
2026-05-01 09:04 40.50600 -73.60869 11154 ft 382 kts 82°
2026-05-01 09:05 40.50939 -73.57391 11389 ft 397 kts 82°
2026-05-01 09:05 40.51276 -73.53737 11789 ft 407 kts 83°
2026-05-01 09:05 40.51611 -73.50007 12297 ft 413 kts 83°
2026-05-01 09:05 40.51946 -73.46233 12850 ft 418 kts 83°
2026-05-01 09:06 40.52283 -73.42416 13390 ft 423 kts 84°
2026-05-01 09:06 40.52598 -73.38531 13917 ft 428 kts 85°
2026-05-01 09:06 40.52906 -73.34617 14448 ft 432 kts 85°
2026-05-01 09:06 40.53222 -73.30686 15001 ft 434 kts 85°
2026-05-01 09:07 40.53548 -73.26775 15553 ft 436 kts 84°
2026-05-01 09:07 40.53888 -73.22803 16094 ft 439 kts 84°
2026-05-01 09:07 40.54238 -73.18798 16652 ft 441 kts 84°
2026-05-01 09:07 40.54591 -73.14779 17208 ft 443 kts 84°
2026-05-01 09:08 40.54965 -73.10738 17695 ft 447 kts 82°
2026-05-01 09:08 40.55636 -73.06731 18191 ft 450 kts 73°
2026-05-01 09:08 40.56779 -73.02896 18611 ft 452 kts 63°
2026-05-01 09:08 40.58443 -72.99388 18996 ft 453 kts 50°
2026-05-01 09:09 40.60594 -72.96368 19381 ft 452 kts 40°
2026-05-01 09:09 40.62985 -72.93667 19786 ft 453 kts 36°
2026-05-01 09:09 40.65478 -72.91110 20198 ft 455 kts 34°
2026-05-01 09:09 40.68023 -72.88613 20571 ft 458 kts 33°
2026-05-01 09:10 40.70578 -72.86136 20992 ft 461 kts 33°
2026-05-01 09:10 40.73175 -72.83608 21403 ft 464 kts 33°
2026-05-01 09:10 40.75773 -72.81052 21780 ft 467 kts 33°
2026-05-01 09:10 40.78382 -72.78458 22182 ft 470 kts 34°
2026-05-01 09:11 40.81000 -72.75835 22546 ft 474 kts 34°
2026-05-01 09:11 40.83626 -72.73193 22921 ft 477 kts 34°
2026-05-01 09:11 40.86238 -72.70556 23288 ft 480 kts 34°
2026-05-01 09:11 40.88931 -72.67834 23666 ft 483 kts 34°
2026-05-01 09:12 40.91568 -72.65165 24031 ft 484 kts 34°
2026-05-01 09:12 40.94247 -72.62452 24365 ft 486 kts 34°
2026-05-01 09:12 40.96945 -72.59719 24675 ft 488 kts 34°
2026-05-01 09:12 40.99648 -72.56978 24999 ft 490 kts 34°
2026-05-01 09:13 41.02361 -72.54224 25306 ft 493 kts 34°
2026-05-01 09:13 41.04164 -72.52393 25513 ft 494 kts 34°
2026-05-01 09:13 41.06903 -72.49608 25833 ft 496 kts 35°
2026-05-01 09:13 41.10550 -72.45897 26251 ft 499 kts 35°
2026-05-01 09:14 41.13309 -72.43085 26547 ft 501 kts 35°
2026-05-01 09:14 41.15183 -72.41173 26760 ft 503 kts 35°
2026-05-01 09:14 41.17935 -72.38362 27055 ft 505 kts 35°
2026-05-01 09:14 41.20725 -72.35510 27349 ft 507 kts 35°
2026-05-01 09:15 41.23536 -72.32633 27648 ft 510 kts 35°
2026-05-01 09:15 41.26352 -72.29749 27970 ft 512 kts 35°
2026-05-01 09:15 41.29178 -72.26849 28242 ft 515 kts 36°
2026-05-01 09:15 41.32025 -72.23927 28480 ft 517 kts 36°
2026-05-01 09:16 41.34887 -72.20985 28754 ft 519 kts 36°
2026-05-01 09:16 41.37710 -72.18080 29158 ft 519 kts 36°
2026-05-01 09:16 41.40560 -72.15140 29586 ft 517 kts 36°
2026-05-01 09:17 41.46249 -72.09261 30312 ft 517 kts 36°
2026-05-01 09:17 41.49095 -72.06315 30631 ft 516 kts 36°
2026-05-01 09:17 41.54747 -72.00457 31246 ft 516 kts 36°
2026-05-01 09:18 41.57585 -71.97512 31533 ft 516 kts 36°
2026-05-01 09:18 41.63262 -71.91609 32101 ft 517 kts 37°
2026-05-01 09:19 41.68937 -71.85698 32684 ft 517 kts 37°
2026-05-01 09:19 41.71774 -71.82737 32985 ft 516 kts 37°
2026-05-01 09:19 41.74604 -71.79779 33271 ft 516 kts 37°
2026-05-01 09:20 41.80263 -71.73859 33840 ft 516 kts 37°
2026-05-01 09:20 41.85920 -71.67928 34289 ft 515 kts 37°
2026-05-01 09:21 41.91564 -71.61998 34744 ft 514 kts 37°
2026-05-01 09:21 41.94340 -71.59078 34974 ft 513 kts 38°
2026-05-01 09:21 41.99956 -71.53161 35389 ft 512 kts 38°
2026-05-01 09:22 42.05571 -71.47229 35778 ft 512 kts 38°
2026-05-01 09:22 42.11173 -71.41297 36154 ft 512 kts 38°
2026-05-01 09:23 42.13967 -71.38333 36342 ft 512 kts 38°
2026-05-01 09:23 42.19531 -71.32422 36669 ft 512 kts 38°
2026-05-01 09:24 42.25134 -71.26453 36880 ft 513 kts 38°
2026-05-01 09:24 42.27931 -71.23467 36899 ft 513 kts 38°
2026-05-01 09:25 42.39135 -71.11474 36882 ft 513 kts 39°
2026-05-01 09:26 42.47492 -71.02490 36870 ft 513 kts 39°
2026-05-01 09:26 42.55866 -70.93456 36859 ft 513 kts 39°
2026-05-01 09:27 42.64236 -70.84395 36859 ft 513 kts 39°
2026-05-01 09:28 42.69788 -70.78367 36855 ft 513 kts 39°
2026-05-01 09:28 42.75365 -70.72295 36849 ft 513 kts 39°
2026-05-01 09:29 42.83723 -70.63172 36836 ft 513 kts 40°
2026-05-01 09:30 42.92069 -70.54028 36831 ft 513 kts 40°
2026-05-01 09:30 43.00395 -70.44875 36833 ft 514 kts 40°
2026-05-01 09:31 43.05967 -70.38730 36834 ft 514 kts 40°
2026-05-01 09:32 43.14309 -70.29503 36834 ft 514 kts 40°
2026-05-01 09:32 43.22603 -70.20295 36834 ft 514 kts 40°
2026-05-01 09:33 43.28154 -70.14114 36829 ft 514 kts 40°
2026-05-01 09:34 43.36483 -70.04812 36828 ft 513 kts 41°
2026-05-01 09:34 43.44762 -69.95533 36826 ft 513 kts 41°
2026-05-01 09:35 43.53059 -69.86199 36824 ft 513 kts 41°
2026-05-01 09:36 43.58586 -69.79962 36821 ft 513 kts 41°
2026-05-01 09:36 43.64112 -69.73711 36822 ft 512 kts 41°
2026-05-01 09:37 43.69589 -69.67499 36816 ft 512 kts 41°
2026-05-01 09:37 43.77860 -69.58092 36829 ft 512 kts 41°
2026-05-01 09:38 43.86117 -69.48665 36811 ft 512 kts 41°
2026-05-01 09:39 43.94331 -69.39253 36810 ft 512 kts 42°
2026-05-01 09:39 43.99820 -69.32942 36802 ft 512 kts 42°
2026-05-01 09:40 44.08051 -69.23453 36798 ft 512 kts 42°
2026-05-01 09:41 44.13493 -69.17158 36797 ft 511 kts 42°
2026-05-01 09:41 44.21710 -69.07624 36788 ft 512 kts 43°
2026-05-01 09:42 44.27176 -69.01262 36784 ft 511 kts 43°
2026-05-01 09:43 44.38080 -68.88523 36774 ft 511 kts 43°
2026-05-01 09:43 44.43504 -68.82163 36777 ft 511 kts 43°
2026-05-01 09:44 44.51680 -68.72545 36770 ft 511 kts 43°
2026-05-01 09:45 44.57124 -68.66120 36771 ft 511 kts 43°
2026-05-01 09:45 44.65284 -68.56460 36765 ft 511 kts 43°
2026-05-01 09:46 44.70723 -68.50001 36765 ft 511 kts 43°
2026-05-01 09:46 44.76113 -68.43583 36756 ft 511 kts 44°
2026-05-01 09:47 44.81539 -68.37107 36756 ft 511 kts 44°
2026-05-01 09:47 44.86965 -68.30613 36753 ft 511 kts 44°
2026-05-01 09:48 44.92391 -68.24104 36758 ft 511 kts 44°
2026-05-01 09:48 44.97777 -68.17625 36753 ft 511 kts 44°
2026-05-01 09:49 45.03196 -68.11090 36751 ft 511 kts 44°
2026-05-01 09:49 45.08604 -68.04550 36749 ft 511 kts 44°
2026-05-01 09:50 45.14004 -67.98005 36746 ft 511 kts 44°
2026-05-01 09:50 45.19366 -67.91488 36731 ft 511 kts 44°
2026-05-01 09:51 45.24763 -67.84912 36742 ft 511 kts 45°
2026-05-01 09:51 45.30156 -67.78323 36742 ft 511 kts 45°
2026-05-01 09:52 45.34941 -67.71003 36745 ft 501 kts 60°
2026-05-01 09:52 45.38751 -67.62776 36746 ft 501 kts 63°
2026-05-01 09:53 45.42394 -67.54328 36743 ft 501 kts 64°
2026-05-01 09:53 45.46012 -67.45843 36747 ft 501 kts 64°
2026-05-01 09:54 45.49643 -67.37361 36744 ft 501 kts 64°
2026-05-01 09:54 45.53283 -67.28876 36746 ft 501 kts 64°
2026-05-01 09:55 45.56892 -67.20448 36748 ft 500 kts 64°
2026-05-01 09:55 45.60521 -67.11945 36748 ft 500 kts 64°
2026-05-01 09:56 45.64135 -67.03450 36747 ft 500 kts 64°
2026-05-01 09:56 45.67747 -66.94934 36748 ft 500 kts 64°
2026-05-01 09:57 45.71249 -66.86649 36749 ft 500 kts 65°
2026-05-01 09:57 45.74819 -66.78181 36752 ft 500 kts 65°
2026-05-01 09:58 45.78407 -66.69643 36754 ft 500 kts 65°
2026-05-01 09:58 45.81987 -66.61099 36753 ft 500 kts 65°
2026-05-01 09:59 45.85563 -66.52539 36738 ft 500 kts 65°
2026-05-01 09:59 45.89131 -66.43969 36758 ft 501 kts 65°
2026-05-01 10:00 45.92102 -66.36814 36766 ft 501 kts 65°
2026-05-01 10:00 45.95671 -66.28193 36766 ft 501 kts 65°
2026-05-01 10:01 45.99807 -66.18173 36769 ft 501 kts 65°
2026-05-01 10:01 46.02785 -66.10935 36771 ft 501 kts 65°
2026-05-01 10:02 46.06309 -66.02346 36771 ft 501 kts 65°
2026-05-01 10:02 46.09785 -65.93846 36774 ft 501 kts 65°
2026-05-01 10:03 46.13291 -65.85246 36787 ft 501 kts 65°
2026-05-01 10:03 46.16824 -65.76553 36780 ft 502 kts 65°
2026-05-01 10:04 46.20358 -65.67829 36795 ft 503 kts 65°
2026-05-01 10:04 46.23879 -65.59110 36795 ft 503 kts 65°
2026-05-01 10:05 46.27404 -65.50354 36799 ft 503 kts 65°
2026-05-01 10:05 46.30902 -65.41638 36802 ft 503 kts 66°
2026-05-01 10:06 46.34406 -65.32878 36797 ft 503 kts 66°
2026-05-01 10:06 46.37914 -65.24080 36810 ft 504 kts 65°
2026-05-01 10:07 46.41411 -65.15282 36816 ft 504 kts 65°
2026-05-01 10:07 46.44886 -65.06510 36817 ft 505 kts 65°
2026-05-01 10:08 46.48044 -64.98543 37701 ft 482 kts 64°